Orbital Elements at Epoch 2459200.5 (2020-Dec-17.0) TDB
Reference: JPL 21 (heliocentric ecliptic J2000)
Element | Value | Uncertainty (1-sigma) | Units |
e | .0972866887238389 | 4.8306e-08 | |
a | 5.221134785452045 | 8.7959e-08 | au |
q | 4.713187870794564 | 3.0391e-07 | au |
i | 10.70734788326702 | 7.2164e-06 | deg |
node | 206.8248077370604 | 2.434e-05 | deg |
peri | 243.9161593737367 | 4.5086e-05 | deg |
M | 303.9398252113081 | 3.853e-05 | deg |
tp | 2459879.074805430186 (2022-Oct-26.57480543) | 0.00047069 | TDB |
period | 4357.584165152172 11.93 | 0.00011012 3.015e-07 | d yr |
n | .08261458330029257 | 2.0877e-09 | deg/d |
Q | 5.729081700109525 | 9.6516e-08 | au |
|
| | Orbit Determination Parameters
Additional Information
|